This demonstration page uses our WeatherBlox Daily Observations layout. Learn more.

Left ArrowRight Arrow

Hourly Observations for September 25, 2022

Temp ( °F °C ) Dew Point ( °F °C ) Humidity (%) Winds ( mph kmh ) Pressure ( in mb ) Visibility ( mi km ) Precip ( " mm )
12:53 am 00:53 Clear 55 12.8 46 7.8 72 72 WNW 6 9 30.06 1018 10 16 0.00 0.00
1:53 am 01:53 Clear 53 11.7 46 7.8 77 77 WNW 8 13 30.08 1019 10 16 0.00 0.00
2:53 am 02:53 Clear 52 11.1 45 7.2 77 77 W 8 13 30.11 1020 10 16 0.00 0.00
3:53 am 03:53 Clear 53 11.7 44 6.7 71 71 WNW 8 13 30.12 1020 10 16 0.00 0.00
4:53 am 04:53 Clear 49 9.4 43 6.1 80 80 WNW 7 11 30.13 1020 10 16 0.00 0.00
5:53 am 05:53 Clear 49 9.4 44 6.7 83 83 NW 7 11 30.14 1021 10 16 0.00 0.00
6:53 am 06:53 Clear 48 8.9 43 6.1 83 83 WNW 5 7 30.17 1022 10 16 0.00 0.00
7:53 am 07:53 Sunny 49 9.4 44 6.7 83 83 W 7 11 30.20 1023 10 16 0.00 0.00
8:53 am 08:53 Sunny 56 13.3 45 7.2 66 66 NW 12 19 30.21 1023 10 16 0.00 0.00
9:53 am 09:53 Sunny 61 16.1 45 7.2 56 56 NW 12 19 30.22 1024 10 16 0.00 0.00
10:53 am 10:53 Sunny 68 20 45 7.2 43 43 NNW 12 19 30.24 1024 10 16 0.00 0.00
11:53 am 11:53 Sunny 72 22.2 43 6.1 35 35 NNW 15 24 30.22 1023 10 16 0.00 0.00
12:53 pm 12:53 Mostly Sunny 75 23.9 41 5 29 29 NW 16 26 30.21 1023 10 16 0.00 0.00
1:53 pm 13:53 Partly Cloudy 76 24.4 38 3.3 25 25 NW 16 26 30.19 1022 10 16 0.00 0.00
2:53 pm 14:53 Partly Cloudy 74 23.3 41 5 30 30 NNW 15 24 30.17 1022 10 16 0.00 0.00
3:53 pm 15:53 Mostly Sunny 77 25 40 4.4 26 26 NW 18 30 30.14 1021 10 16 0.00 0.00
4:53 pm 16:53 Mostly Sunny 76 24.4 40 4.4 27 27 NNW 14 22 30.14 1021 10 16 0.00 0.00
5:53 pm 17:53 Mostly Sunny 76 24.4 40 4.4 27 27 NW 13 20 30.12 1020 10 16 0.00 0.00
6:53 pm 18:53 Sunny 71 21.7 42 5.6 35 35 NNW 7 11 30.12 1020 10 16 0.00 0.00
7:53 pm 19:53 Clear 60 15.6 47 8.3 62 62 NW 6 9 30.14 1021 10 16 0.00 0.00
8:53 pm 20:53 Clear 55 12.8 46 7.8 72 72 WNW 6 9 30.14 1021 10 16 0.00 0.00
9:53 pm 21:53 Clear 53 11.7 45 7.2 74 74 Calm 30.16 1022 10 16 0.00 0.00
10:53 pm 22:53 Clear 54 12.2 43 6.1 66 66 N 7 11 30.17 1022 10 16 0.00 0.00
11:53 pm 23:53 Clear 54 12.2 42 5.6 64 64 NNW 5 7 30.17 1022 10 16 0.00 0.00

Powered by AerisWeather